This demonstration page uses our WeatherBlox Daily Observations layout. Learn more.

Left ArrowRight Arrow

Hourly Observations for November 22, 2022

Temp ( °F °C ) Dew Point ( °F °C ) Humidity (%) Winds ( mph kmh ) Pressure ( in mb ) Visibility ( mi km ) Precip ( " mm )
12:53 am 00:53 Clear 34 1.1 32 0 92 92 ESE 5 7 30.26 1025 10 16 0.00 0.00
1:53 am 01:53 Clear 32 0 30 -1.1 92 92 ENE 5 7 30.24 1024 9 14 0.00 0.00
2:53 am 02:53 Clear 28 -2.2 25 -3.9 88 88 N 7 11 30.24 1024 10 16 0.00 0.00
3:53 am 03:53 Clear 27 -2.8 24 -4.4 89 89 NNW 5 7 30.23 1024 10 16 0.00 0.00
4:53 am 04:53 Clear 26 -3.3 24 -4.4 92 92 N 6 9 30.23 1024 8 13 0.00 0.00
5:06 am 05:06 Partly Cloudy 26 -3.3 23 -5 88 88 N 7 11 30.38 1029 7 11 0.00 0.00
5:15 am 05:15 Mostly Cloudy with Mist and Fog 26 -3.3 24 -4.4 92 92 N 6 9 30.38 1029 6 10 0.00 0.00
5:53 am 05:53 Cloudy with Mist and Fog 25 -3.9 23 -5 92 92 N 5 7 30.23 1024 6 10 0.00 0.00
6:10 am 06:10 Cloudy with Mist and Fog 25 -3.9 23 -5 92 92 N 5 7 30.39 1029 2 2 0.00 0.00
6:20 am 06:20 Mostly Clear with Freezing Fog 25 -3.9 24 -4.4 96 96 N 5 7 30.39 1029 1 1 0.00 0.00
10:11 am 10:11 Cloudy with Mist and Fog 37 2.8 36 2.2 96 96 Calm 30.34 1027 3 5 0.00 0.00
10:28 am 10:28 Partly Cloudy 40 4.4 36 2.2 86 86 Calm 30.32 1027 9 14 0.00 0.00
10:53 am 10:53 Sunny 45 7.2 37 2.8 74 74 E 5 7 30.25 1025 10 16 0.00 0.00
11:53 am 11:53 Sunny 53 11.7 39 3.9 59 59 SE 6 9 30.21 1023 10 16 0.00 0.00
12:53 pm 12:53 Sunny 57 13.9 38 3.3 49 49 SSE 6 9 30.17 1022 10 16 0.00 0.00
1:53 pm 13:53 Sunny 61 16.1 35 1.7 38 38 S 6 9 30.13 1020 10 16 0.00 0.00
2:53 pm 14:53 Sunny 62 16.7 32 0 32 32 SSE 7 11 30.11 1020 10 16 0.00 0.00
3:53 pm 15:53 Sunny 63 17.2 33 0.6 33 33 SE 9 15 30.09 1019 10 16 0.00 0.00
4:53 pm 16:53 Sunny 62 16.7 36 2.2 38 38 SE 12 19 30.09 1019 10 16 0.00 0.00
5:53 pm 17:53 Clear 58 14.4 38 3.3 47 47 SE 9 15 30.08 1019 10 16 0.00 0.00
6:53 pm 18:53 Clear 51 10.6 39 3.9 63 63 SE 9 15 30.11 1020 10 16 0.00 0.00
7:53 pm 19:53 Clear 49 9.4 40 4.4 71 71 SE 10 17 30.11 1020 10 16 0.00 0.00
8:53 pm 20:53 Clear 46 7.8 41 5 82 82 SE 9 15 30.12 1020 10 16 0.00 0.00
9:53 pm 21:53 Clear 44 6.7 42 5.6 93 93 SE 10 17 30.12 1020 10 16 0.00 0.00
10:15 pm 22:15 Partly Cloudy 44 6.7 42 5.6 93 93 ESE 14 22 30.16 1021 10 16 0.00 0.00
10:20 pm 22:20 Mostly Cloudy 43 6.1 42 5.6 97 97 SE 15 24 30.17 1022 8 13 0.00 0.00
10:53 pm 22:53 Cloudy with Mist and Fog 44 6.7 42 5.6 93 93 SE 12 19 30.11 1020 6 10 0.00 0.00
11:53 pm 23:53 Cloudy 44 6.7 42 5.6 93 93 ESE 12 19 30.09 1019 7 11 0.00 0.00

Powered by AerisWeather